Weather History for Barranquilla, Colombia

Change the Weather History Date:

Tuesday, October 1, 2013

  Actual Average Record
Temperature  
Mean Temperature 81 °F -  
Max Temperature 90 °F 90 °F 97 °F (2014)
Min Temperature 72 °F 75 °F 57 °F (2002)
Cooling Degree Days 16    
Growing Degree Days 31 (Base 50)    
Moisture  
Dew Point 76 °F    
Average Humidity 90    
Maximum Humidity 100    
Minimum Humidity 66    
Precipitation  
Precipitation 0.00 in 0.23 in - ()
Sea Level Pressure  
Sea Level Pressure 29.86 in    
Wind  
Wind Speed 3 mph ()    
Max Wind Speed 12 mph    
Max Gust Speed -    
Visibility 4.9 miles    
Events Fog , Rain , Thunderstorm    
Averages and records for this station are not official NWS values.
T = Trace of Precipitation, MM = Missing Value Source: Averaged Metar Reports

Daily Weather History Graph

Daily Weather History Graph

Search for Another Location

Airport:

Trip Planner

Search our weather history database for the weather conditions in past years. The results will help you decide how hot, cold, wet, or windy it might be!

Date:

Astronomy

Oct. 01, 2013 Rise Set
Actual Time 5:47 AM COT 5:49 PM COT
Civil Twilight 5:26 AM COT 6:10 PM COT
Nautical Twilight 5:02 AM COT 6:34 PM COT
Astronomical Twilight 4:37 AM COT 6:59 PM COT
Moon 2:51 AM COT (10/1) 3:25 PM COT (10/1)
Length of Visible Light 12h 43m
Length of Day
12h 01m
Waning Crescent, 12% of the Moon is Illuminated
Oct 1
Waning Crescent
Oct 4
New
Oct 11
First Quarter
Oct 18
Full
Oct 26
Last Quarter

Hourly Weather History & Observations

Time (COT) Temp. Heat Index Dew Point Humidity Pressure Visibility Wind Dir Wind Speed Gust Speed Precip Events Conditions
12:00 AM 77.0 °F - 75.2 °F 94% 29.89 in 6.2 mi Calm Calm - N/A   Scattered Clouds
1:00 AM 76 °F - 75 °F 94% 29.89 in 3 mi WNW 4.5 mph - -   Mist
1:00 AM 77.0 °F - 75.2 °F 94% 29.88 in 3.1 mi WNW 3.5 mph - N/A   Scattered Clouds
2:00 AM 75.2 °F - 73.4 °F 94% 29.86 in 4.3 mi Variable 2.3 mph - N/A Fog Fog
3:00 AM 77.0 °F - 75.2 °F 94% 29.84 in 4.3 mi Variable 2.3 mph - N/A Fog Fog
4:00 AM 77 °F - 76 °F 95% 29.86 in 4 mi West 4.5 mph - - Fog Light Fog
4:00 AM 77.0 °F - 75.2 °F 94% 29.85 in - West 4.6 mph - N/A Fog Fog
5:00 AM 77.0 °F - 75.2 °F 94% 29.85 in 5.0 mi SSW 4.6 mph - N/A Fog Fog
6:00 AM 77.0 °F - 75.2 °F 94% 29.87 in 6.2 mi Variable 2.3 mph - N/A   Scattered Clouds
7:00 AM 79 °F - 77 °F 92% 29.91 in 6 mi Calm Calm - - Fog Light Fog
7:00 AM 78.8 °F - 77.0 °F 94% 29.90 in 6.2 mi Calm Calm - N/A   Scattered Clouds
8:00 AM 86.0 °F 99.3 °F 78.8 °F 79% 29.91 in 6.2 mi NW 3.5 mph - N/A   Scattered Clouds
9:00 AM 87.8 °F 102.5 °F 78.8 °F 75% 29.92 in 6.2 mi NW 3.5 mph - N/A   Scattered Clouds
10:00 AM 89 °F - 79 °F 66% 29.93 in 6 mi SW 2.2 mph - -   Haze
10:00 AM 89.6 °F 104.7 °F 78.8 °F 70% 29.92 in 6.2 mi Variable 2.3 mph - N/A   Mostly Cloudy
11:00 AM 86.0 °F 99.3 °F 78.8 °F 79% 29.91 in 6.2 mi ENE 3.5 mph - N/A   Mostly Cloudy
12:00 PM 84.2 °F 96.1 °F 78.8 °F 84% 29.89 in 6.2 mi North 5.8 mph - N/A Thunderstorm Thunderstorm
12:29 PM 77.0 °F - 73.4 °F 89% 29.88 in 1.9 mi West 11.5 mph - N/A Rain , Thunderstorm Thunderstorms and Rain
12:36 PM - - - N/A% 29.89 in 0.7 mi West 11.5 mph - N/A Rain , Thunderstorm Thunderstorms and Rain
1:00 PM 75 °F - 72 °F 89% 29.89 in 2 mi WNW 11.2 mph - - Rain , Thunderstorm Thunderstorms and Rain
1:00 PM 75.2 °F - 73.4 °F 94% 29.88 in 1.9 mi WNW 11.5 mph - N/A Rain , Thunderstorm Thunderstorms and Rain
1:22 PM 75.2 °F - 73.4 °F 94% 29.86 in 6.2 mi NW 10.4 mph - N/A Thunderstorm Thunderstorm
2:00 PM 77.0 °F - 75.2 °F 94% 29.84 in 6.2 mi WNW 4.6 mph - N/A   Scattered Clouds
3:00 PM 80.6 °F 87.1 °F 77.0 °F 89% 29.81 in 6.2 mi WNW 6.9 mph - N/A   Mostly Cloudy
4:00 PM 83 °F - 78 °F 82% 29.83 in 6 mi WNW 4.5 mph - -   Haze
4:00 PM 84.2 °F 96.1 °F 78.8 °F 84% 29.82 in 6.2 mi WNW 4.6 mph - N/A   Scattered Clouds
5:00 PM 80.6 °F 88.1 °F 78.8 °F 94% 29.80 in 6.2 mi NNW 5.8 mph - N/A   Mostly Cloudy
6:00 PM 82.4 °F 90.9 °F 77.0 °F 84% 29.81 in 6.2 mi ESE 4.6 mph - N/A   Scattered Clouds
6:27 PM 80.6 °F 87.1 °F 77.0 °F 89% 29.82 in 6.2 mi Calm Calm - N/A   Light Drizzle
7:00 PM 80 °F - 77 °F 89% 29.83 in 5 mi Calm Calm - - Rain Light Drizzle
7:00 PM 80.6 °F 87.1 °F 77.0 °F 89% 29.82 in 5.0 mi Calm Calm - N/A   Light Drizzle
8:00 PM 78.8 °F - 77.0 °F 94% 29.84 in 6.2 mi Variable 2.3 mph - N/A   Scattered Clouds
9:00 PM 78.8 °F - 77.0 °F 94% 29.85 in 6.2 mi Calm Calm - N/A   Scattered Clouds
10:00 PM 78 °F - 77 °F 94% 29.86 in 6 mi West 2.2 mph - -   Haze
10:00 PM 78.8 °F - 77.0 °F 94% 29.85 in 6.2 mi Variable 2.3 mph - N/A   Scattered Clouds
11:00 PM 77 °F - 76 °F 96% 29.84 in 0 mi South 4.5 mph - - Fog Heavy Fog
11:00 PM 77.0 °F - 77.0 °F 100% 29.85 in 5.0 mi SSW 3.5 mph - N/A Fog Patches of Fog
11:30 PM 77.0 °F - 77.0 °F 100% 29.85 in 0.1 mi South 3.5 mph - N/A Fog Fog